Time,TemperatureF,DewpointF,PressureIn,WindDirection,WindDirectionDegrees,WindSpeedMPH,WindSpeedGustMPH,Humidity,HourlyPrecipIn,Conditions,Clouds,dailyrainin,SoftwareType,DateUTC
2013-07-05 00:01:00,69.4,68.5,30.14,NE,40,0.0,4.0,97,0.05,,,0.00,WUHU216DAVISVP2,2013-07-05 04:01:00,
2013-07-05 00:06:00,69.4,68.5,30.14,NE,40,0.0,4.0,97,0.05,,,0.00,WUHU216DAVISVP2,2013-07-05 04:06:00,
2013-07-05 00:11:00,69.4,68.5,30.14,NE,40,0.0,2.0,97,0.05,,,0.00,WUHU216DAVISVP2,2013-07-05 04:11:00,
2013-07-05 00:16:00,69.4,68.5,30.14,NE,40,0.0,2.0,97,0.04,,,0.00,WUHU216DAVISVP2,2013-07-05 04:16:00,
2013-07-05 00:21:00,69.3,68.4,30.14,NE,40,0.0,2.0,97,0.04,,,0.00,WUHU216DAVISVP2,2013-07-05 04:21:00,
2013-07-05 00:26:00,69.3,68.4,30.14,NE,40,0.0,1.0,97,0.03,,,0.00,WUHU216DAVISVP2,2013-07-05 04:26:00,
2013-07-05 00:31:00,69.3,68.4,30.14,NE,40,0.0,1.0,97,0.03,,,0.00,WUHU216DAVISVP2,2013-07-05 04:31:00,
2013-07-05 00:36:00,69.3,68.7,30.14,NE,40,0.0,1.0,98,0.02,,,0.00,WUHU216DAVISVP2,2013-07-05 04:36:00,
2013-07-05 00:41:00,69.3,68.7,30.14,NE,40,0.0,1.0,98,0.01,,,0.00,WUHU216DAVISVP2,2013-07-05 04:41:00,
2013-07-05 00:46:00,69.2,68.6,30.14,NE,40,0.0,1.0,98,0.01,,,0.00,WUHU216DAVISVP2,2013-07-05 04:46:00,
2013-07-05 00:51:00,69.3,68.7,30.14,NE,40,1.0,1.0,98,0.01,,,0.00,WUHU216DAVISVP2,2013-07-05 04:51:00,
2013-07-05 00:56:00,69.3,68.7,30.15,NE,40,0.0,2.0,98,0.00,,,0.00,WUHU216DAVISVP2,2013-07-05 04:56:00,
2013-07-05 01:01:00,69.4,68.8,30.15,NE,41,1.0,2.0,98,0.00,,,0.00,WUHU216DAVISVP2,2013-07-05 05:01:00,
2013-07-05 01:06:00,69.4,68.8,30.15,East,93,1.0,2.0,98,0.00,,,0.00,WUHU216DAVISVP2,2013-07-05 05:06:00,
2013-07-05 01:11:00,69.4,68.8,30.15,ESE,121,0.0,4.0,98,0.00,,,0.00,WUHU216DAVISVP2,2013-07-05 05:11:00,
2013-07-05 01:16:00,69.4,68.8,30.15,ESE,122,0.0,4.0,98,0.01,,,0.01,WUHU216DAVISVP2,2013-07-05 05:16:00,
2013-07-05 01:21:00,69.4,68.8,30.15,ESE,122,0.0,4.0,98,0.01,,,0.01,WUHU216DAVISVP2,2013-07-05 05:21:00,
2013-07-05 01:26:00,69.4,68.8,30.15,ESE,121,0.0,2.0,98,0.01,,,0.01,WUHU216DAVISVP2,2013-07-05 05:26:00,
2013-07-05 01:31:00,69.5,68.9,30.15,ESE,121,0.0,2.0,98,0.01,,,0.01,WUHU216DAVISVP2,2013-07-05 05:31:00,
2013-07-05 01:36:00,69.5,68.9,30.15,ESE,121,0.0,1.0,98,0.01,,,0.01,WUHU216DAVISVP2,2013-07-05 05:36:00,
2013-07-05 01:41:00,69.6,69.0,30.15,ESE,121,0.0,1.0,98,0.01,,,0.01,WUHU216DAVISVP2,2013-07-05 05:41:00,
2013-07-05 01:46:00,69.6,69.0,30.15,ESE,122,0.0,0.0,98,0.01,,,0.01,WUHU216DAVISVP2,2013-07-05 05:46:00,
2013-07-05 01:51:00,69.5,68.9,30.14,ESE,121,0.0,0.0,98,0.01,,,0.01,WUHU216DAVISVP2,2013-07-05 05:51:00,
2013-07-05 01:56:00,69.5,68.9,30.14,West,263,0.0,2.0,98,0.01,,,0.01,WUHU216DAVISVP2,2013-07-05 05:56:00,
2013-07-05 02:01:00,69.5,68.9,30.15,West,264,0.0,2.0,98,0.01,,,0.01,WUHU216DAVISVP2,2013-07-05 06:01:00,
2013-07-05 02:06:00,69.5,68.9,30.14,West,264,0.0,2.0,98,0.01,,,0.01,WUHU216DAVISVP2,2013-07-05 06:06:00,
2013-07-05 02:11:00,69.5,68.9,30.14,West,264,0.0,2.0,98,0.01,,,0.01,WUHU216DAVISVP2,2013-07-05 06:11:00,
2013-07-05 02:16:00,69.5,68.9,30.14,West,264,0.0,1.0,98,0.00,,,0.01,WUHU216DAVISVP2,2013-07-05 06:16:00,
2013-07-05 02:21:00,69.4,68.8,30.14,West,263,0.0,0.0,98,0.00,,,0.01,WUHU216DAVISVP2,2013-07-05 06:21:00,
2013-07-05 02:26:00,69.4,68.8,30.14,West,264,0.0,0.0,98,0.00,,,0.01,WUHU216DAVISVP2,2013-07-05 06:26:00,
2013-07-05 02:31:00,69.4,68.8,30.14,West,264,0.0,0.0,98,0.00,,,0.01,WUHU216DAVISVP2,2013-07-05 06:31:00,
2013-07-05 02:36:00,69.4,68.8,30.14,West,263,0.0,0.0,98,0.00,,,0.01,WUHU216DAVISVP2,2013-07-05 06:36:00,
2013-07-05 02:41:00,69.3,68.7,30.14,West,264,0.0,0.0,98,0.00,,,0.01,WUHU216DAVISVP2,2013-07-05 06:41:00,
2013-07-05 02:46:00,69.3,68.7,30.14,West,264,0.0,0.0,98,0.00,,,0.01,WUHU216DAVISVP2,2013-07-05 06:46:00,
2013-07-05 02:51:00,69.2,68.6,30.14,West,263,0.0,0.0,98,0.00,,,0.01,WUHU216DAVISVP2,2013-07-05 06:51:00,
2013-07-05 02:56:00,69.2,68.6,30.14,West,264,0.0,0.0,98,0.00,,,0.01,WUHU216DAVISVP2,2013-07-05 06:56:00,
2013-07-05 03:01:00,69.1,68.5,30.14,West,264,0.0,0.0,98,0.00,,,0.01,WUHU216DAVISVP2,2013-07-05 07:01:00,
2013-07-05 03:06:00,69.1,68.5,30.13,West,264,0.0,0.0,98,0.00,,,0.01,WUHU216DAVISVP2,2013-07-05 07:06:00,
2013-07-05 03:11:00,69.1,68.5,30.13,West,263,0.0,0.0,98,0.00,,,0.01,WUHU216DAVISVP2,2013-07-05 07:11:00,
2013-07-05 03:16:00,69.1,68.5,30.13,West,264,0.0,0.0,98,0.00,,,0.01,WUHU216DAVISVP2,2013-07-05 07:16:00,
2013-07-05 03:21:00,69.1,68.5,30.13,West,264,0.0,0.0,98,0.00,,,0.01,WUHU216DAVISVP2,2013-07-05 07:21:00,
2013-07-05 03:26:00,69.1,68.5,30.13,West,264,0.0,0.0,98,0.00,,,0.01,WUHU216DAVISVP2,2013-07-05 07:26:00,
2013-07-05 03:31:00,69.0,68.4,30.13,West,264,0.0,0.0,98,0.00,,,0.01,WUHU216DAVISVP2,2013-07-05 07:31:00,
2013-07-05 03:36:00,69.0,68.4,30.12,West,264,0.0,1.0,98,0.00,,,0.01,WUHU216DAVISVP2,2013-07-05 07:36:00,
2013-07-05 03:41:00,69.0,68.4,30.12,West,264,0.0,1.0,98,0.00,,,0.01,WUHU216DAVISVP2,2013-07-05 07:41:00,
2013-07-05 03:46:00,69.0,68.4,30.12,West,264,0.0,1.0,98,0.00,,,0.01,WUHU216DAVISVP2,2013-07-05 07:46:00,
2013-07-05 03:51:00,68.9,68.3,30.12,West,264,0.0,1.0,98,0.00,,,0.01,WUHU216DAVISVP2,2013-07-05 07:51:00,
2013-07-05 03:56:00,68.9,68.3,30.12,West,264,0.0,0.0,98,0.00,,,0.01,WUHU216DAVISVP2,2013-07-05 07:56:00,
2013-07-05 04:01:00,68.9,68.3,30.12,West,264,0.0,0.0,98,0.00,,,0.01,WUHU216DAVISVP2,2013-07-05 08:01:00,
2013-07-05 04:06:00,68.9,68.3,30.12,West,263,0.0,0.0,98,0.00,,,0.01,WUHU216DAVISVP2,2013-07-05 08:06:00,
2013-07-05 04:11:00,68.8,68.2,30.12,West,264,0.0,0.0,98,0.00,,,0.01,WUHU216DAVISVP2,2013-07-05 08:11:00,
2013-07-05 04:16:00,68.8,68.2,30.12,West,264,0.0,0.0,98,0.00,,,0.01,WUHU216DAVISVP2,2013-07-05 08:16:00,
2013-07-05 04:21:00,68.8,68.2,30.12,West,264,0.0,0.0,98,0.00,,,0.01,WUHU216DAVISVP2,2013-07-05 08:21:00,
2013-07-05 04:26:00,68.7,68.1,30.12,West,264,0.0,0.0,98,0.00,,,0.01,WUHU216DAVISVP2,2013-07-05 08:26:00,
2013-07-05 04:31:00,68.7,68.1,30.13,West,264,0.0,0.0,98,0.00,,,0.01,WUHU216DAVISVP2,2013-07-05 08:31:00,
2013-07-05 04:36:00,68.6,68.0,30.13,West,263,0.0,0.0,98,0.00,,,0.01,WUHU216DAVISVP2,2013-07-05 08:36:00,
2013-07-05 04:41:00,68.7,68.1,30.13,West,264,0.0,0.0,98,0.00,,,0.01,WUHU216DAVISVP2,2013-07-05 08:41:00,
2013-07-05 04:46:00,68.7,68.1,30.13,West,264,0.0,0.0,98,0.00,,,0.01,WUHU216DAVISVP2,2013-07-05 08:46:00,
2013-07-05 04:51:00,68.7,68.1,30.13,West,264,0.0,0.0,98,0.00,,,0.01,WUHU216DAVISVP2,2013-07-05 08:51:00,
2013-07-05 04:57:00,68.7,68.1,30.13,West,264,0.0,0.0,98,0.00,,,0.01,WUHU216DAVISVP2,2013-07-05 08:57:00,
2013-07-05 05:02:00,68.8,68.2,30.13,West,264,0.0,0.0,98,0.00,,,0.01,WUHU216DAVISVP2,2013-07-05 09:02:00,
2013-07-05 05:07:00,68.9,68.3,30.14,West,264,0.0,0.0,98,0.00,,,0.01,WUHU216DAVISVP2,2013-07-05 09:07:00,
2013-07-05 05:12:00,68.9,68.3,30.14,West,264,0.0,0.0,98,0.00,,,0.01,WUHU216DAVISVP2,2013-07-05 09:12:00,
2013-07-05 05:17:00,68.9,68.3,30.14,West,264,0.0,0.0,98,0.00,,,0.01,WUHU216DAVISVP2,2013-07-05 09:17:00,
2013-07-05 05:23:00,68.9,68.3,30.14,West,264,0.0,0.0,98,0.00,,,0.01,WUHU216DAVISVP2,2013-07-05 09:23:00,
2013-07-05 05:28:00,69.0,68.4,30.14,West,264,0.0,0.0,98,0.00,,,0.01,WUHU216DAVISVP2,2013-07-05 09:28:00,
2013-07-05 05:33:00,69.0,68.4,30.14,West,264,0.0,0.0,98,0.00,,,0.01,WUHU216DAVISVP2,2013-07-05 09:33:00,
2013-07-05 05:38:00,69.1,68.5,30.14,West,263,0.0,0.0,98,0.00,,,0.01,WUHU216DAVISVP2,2013-07-05 09:38:00,
2013-07-05 05:43:00,69.1,68.5,30.14,West,264,0.0,0.0,98,0.00,,,0.01,WUHU216DAVISVP2,2013-07-05 09:43:00,
2013-07-05 05:48:00,69.1,68.5,30.14,West,264,0.0,0.0,98,0.00,,,0.01,WUHU216DAVISVP2,2013-07-05 09:48:00,
2013-07-05 05:53:00,69.1,68.5,30.14,West,264,0.0,0.0,98,0.00,,,0.01,WUHU216DAVISVP2,2013-07-05 09:53:00,
2013-07-05 05:59:00,69.1,68.5,30.14,West,264,0.0,0.0,98,0.00,,,0.01,WUHU216DAVISVP2,2013-07-05 09:59:00,
2013-07-05 06:04:00,69.1,68.5,30.14,West,264,0.0,0.0,98,0.00,,,0.01,WUHU216DAVISVP2,2013-07-05 10:04:00,
2013-07-05 06:09:00,69.2,68.6,30.15,West,264,0.0,0.0,98,0.00,,,0.01,WUHU216DAVISVP2,2013-07-05 10:09:00,
2013-07-05 06:14:00,69.2,68.6,30.15,West,264,0.0,0.0,98,0.00,,,0.01,WUHU216DAVISVP2,2013-07-05 10:14:00,
2013-07-05 06:19:00,69.2,68.6,30.15,West,264,0.0,0.0,98,0.01,,,0.02,WUHU216DAVISVP2,2013-07-05 10:19:00,
2013-07-05 06:24:00,69.1,68.5,30.15,NNW,332,0.0,0.0,98,0.01,,,0.02,WUHU216DAVISVP2,2013-07-05 10:24:00,
2013-07-05 06:29:00,69.1,68.5,30.15,NNW,332,0.0,0.0,98,0.01,,,0.02,WUHU216DAVISVP2,2013-07-05 10:29:00,
2013-07-05 06:34:00,69.1,68.5,30.15,NNW,332,0.0,0.0,98,0.01,,,0.02,WUHU216DAVISVP2,2013-07-05 10:34:00,
2013-07-05 06:39:00,69.1,68.5,30.16,NNW,332,0.0,0.0,98,0.01,,,0.02,WUHU216DAVISVP2,2013-07-05 10:39:00,
2013-07-05 06:44:00,69.1,68.5,30.16,NNW,332,0.0,0.0,98,0.01,,,0.02,WUHU216DAVISVP2,2013-07-05 10:44:00,
2013-07-05 06:49:00,69.0,68.4,30.15,NNW,332,0.0,0.0,98,0.01,,,0.02,WUHU216DAVISVP2,2013-07-05 10:49:00,
2013-07-05 06:55:00,69.0,68.4,30.15,NNW,332,0.0,0.0,98,0.01,,,0.02,WUHU216DAVISVP2,2013-07-05 10:55:00,
2013-07-05 07:00:00,68.9,68.3,30.15,NNW,332,0.0,0.0,98,0.01,,,0.02,WUHU216DAVISVP2,2013-07-05 11:00:00,
2013-07-05 07:05:00,68.9,68.3,30.16,NNW,332,0.0,0.0,98,0.01,,,0.02,WUHU216DAVISVP2,2013-07-05 11:05:00,
2013-07-05 07:10:00,69.0,68.4,30.16,NNW,332,0.0,0.0,98,0.01,,,0.02,WUHU216DAVISVP2,2013-07-05 11:10:00,
2013-07-05 07:15:00,69.0,68.4,30.16,NNW,332,0.0,0.0,98,0.01,,,0.02,WUHU216DAVISVP2,2013-07-05 11:15:00,
2013-07-05 07:20:00,69.0,68.4,30.16,NNW,332,0.0,0.0,98,0.00,,,0.02,WUHU216DAVISVP2,2013-07-05 11:20:00,
2013-07-05 07:25:00,69.1,68.5,30.16,NNW,332,0.0,0.0,98,0.00,,,0.02,WUHU216DAVISVP2,2013-07-05 11:25:00,
2013-07-05 07:30:00,69.2,68.6,30.16,NNW,332,0.0,0.0,98,0.00,,,0.02,WUHU216DAVISVP2,2013-07-05 11:30:00,
2013-07-05 07:35:00,69.2,68.6,30.17,NNW,332,0.0,0.0,98,0.00,,,0.02,WUHU216DAVISVP2,2013-07-05 11:35:00,
2013-07-05 07:40:00,69.2,68.6,30.17,NW,317,0.0,2.0,98,0.00,,,0.02,WUHU216DAVISVP2,2013-07-05 11:40:00,
2013-07-05 07:45:00,69.2,68.6,30.17,NW,317,0.0,2.0,98,0.00,,,0.02,WUHU216DAVISVP2,2013-07-05 11:45:00,
2013-07-05 07:50:00,69.3,68.7,30.17,NW,317,0.0,2.0,98,0.00,,,0.02,WUHU216DAVISVP2,2013-07-05 11:50:00,
2013-07-05 07:55:00,69.3,68.7,30.17,NW,317,0.0,2.0,98,0.00,,,0.02,WUHU216DAVISVP2,2013-07-05 11:55:00,
2013-07-05 08:01:00,69.4,68.8,30.17,NW,317,0.0,1.0,98,0.00,,,0.02,WUHU216DAVISVP2,2013-07-05 12:01:00,
2013-07-05 08:06:00,69.4,68.8,30.17,NW,317,0.0,1.0,98,0.00,,,0.02,WUHU216DAVISVP2,2013-07-05 12:06:00,
2013-07-05 08:11:00,69.4,68.8,30.18,NW,317,0.0,1.0,98,0.00,,,0.02,WUHU216DAVISVP2,2013-07-05 12:11:00,
2013-07-05 08:16:00,69.5,68.9,30.18,West,281,0.0,3.0,98,0.00,,,0.02,WUHU216DAVISVP2,2013-07-05 12:16:00,
2013-07-05 08:21:00,69.5,68.9,30.18,West,281,0.0,3.0,98,0.00,,,0.02,WUHU216DAVISVP2,2013-07-05 12:21:00,
2013-07-05 08:26:00,69.6,69.0,30.18,West,281,0.0,3.0,98,0.00,,,0.02,WUHU216DAVISVP2,2013-07-05 12:26:00,
2013-07-05 08:31:00,69.7,69.1,30.19,West,281,0.0,3.0,98,0.00,,,0.02,WUHU216DAVISVP2,2013-07-05 12:31:00,
2013-07-05 08:36:00,69.8,69.2,30.19,West,281,0.0,2.0,98,0.00,,,0.02,WUHU216DAVISVP2,2013-07-05 12:36:00,
2013-07-05 08:41:00,69.9,69.3,30.19,West,281,0.0,2.0,98,0.00,,,0.02,WUHU216DAVISVP2,2013-07-05 12:41:00,
2013-07-05 08:47:00,70.1,69.5,30.19,West,281,0.0,1.0,98,0.00,,,0.02,WUHU216DAVISVP2,2013-07-05 12:47:00,
2013-07-05 08:52:00,70.2,69.6,30.19,West,281,0.0,1.0,98,0.00,,,0.02,WUHU216DAVISVP2,2013-07-05 12:52:00,
2013-07-05 08:57:00,70.4,69.8,30.19,West,281,0.0,1.0,98,0.00,,,0.02,WUHU216DAVISVP2,2013-07-05 12:57:00,
2013-07-05 09:02:00,70.6,70.0,30.19,West,281,0.0,2.0,98,0.00,,,0.02,WUHU216DAVISVP2,2013-07-05 13:02:00,
2013-07-05 09:07:00,70.6,70.0,30.19,West,281,0.0,3.0,98,0.00,,,0.02,WUHU216DAVISVP2,2013-07-05 13:07:00,
2013-07-05 09:12:00,70.6,70.0,30.19,West,281,0.0,3.0,98,0.00,,,0.02,WUHU216DAVISVP2,2013-07-05 13:12:00,
2013-07-05 09:18:00,70.8,70.2,30.19,West,281,1.0,3.0,98,0.00,,,0.02,WUHU216DAVISVP2,2013-07-05 13:18:00,
2013-07-05 09:23:00,71.1,70.5,30.20,West,281,1.0,3.0,98,0.00,,,0.02,WUHU216DAVISVP2,2013-07-05 13:23:00,
2013-07-05 09:29:00,71.3,70.7,30.20,West,281,0.0,2.0,98,0.00,,,0.02,WUHU216DAVISVP2,2013-07-05 13:29:00,
2013-07-05 09:34:00,71.5,70.9,30.20,West,281,0.0,2.0,98,0.00,,,0.02,WUHU216DAVISVP2,2013-07-05 13:34:00,
2013-07-05 09:39:00,71.5,70.9,30.20,West,281,0.0,2.0,98,0.00,,,0.02,WUHU216DAVISVP2,2013-07-05 13:39:00,
2013-07-05 09:44:00,71.5,70.9,30.20,West,281,0.0,2.0,98,0.00,,,0.02,WUHU216DAVISVP2,2013-07-05 13:44:00,
2013-07-05 09:49:00,71.5,70.9,30.20,West,281,0.0,2.0,98,0.00,,,0.02,WUHU216DAVISVP2,2013-07-05 13:49:00,
2013-07-05 09:55:00,71.6,71.0,30.20,West,281,0.0,2.0,98,0.00,,,0.02,WUHU216DAVISVP2,2013-07-05 13:55:00,
2013-07-05 10:00:00,72.0,71.4,30.20,West,281,1.0,2.0,98,0.00,,,0.02,WUHU216DAVISVP2,2013-07-05 14:00:00,
2013-07-05 10:05:00,72.0,71.4,30.20,West,281,0.0,1.0,98,0.00,,,0.02,WUHU216DAVISVP2,2013-07-05 14:05:00,
2013-07-05 10:10:00,71.9,71.3,30.20,West,281,0.0,1.0,98,0.00,,,0.02,WUHU216DAVISVP2,2013-07-05 14:10:00,
2013-07-05 10:15:00,72.0,71.4,30.20,West,281,0.0,1.0,98,0.00,,,0.02,WUHU216DAVISVP2,2013-07-05 14:15:00,
2013-07-05 10:20:00,72.1,71.2,30.20,West,281,0.0,1.0,97,0.00,,,0.02,WUHU216DAVISVP2,2013-07-05 14:20:00,
2013-07-05 10:25:00,72.5,71.9,30.20,West,281,1.0,1.0,98,0.00,,,0.02,WUHU216DAVISVP2,2013-07-05 14:25:00,
2013-07-05 10:30:00,72.6,72.0,30.20,West,281,0.0,2.0,98,0.00,,,0.02,WUHU216DAVISVP2,2013-07-05 14:30:00,
2013-07-05 10:35:00,72.5,71.6,30.20,West,273,0.0,3.0,97,0.00,,,0.02,WUHU216DAVISVP2,2013-07-05 14:35:00,
2013-07-05 10:40:00,72.4,71.5,30.20,West,273,0.0,3.0,97,0.00,,,0.02,WUHU216DAVISVP2,2013-07-05 14:40:00,
2013-07-05 10:45:00,72.4,71.5,30.20,West,273,0.0,3.0,97,0.00,,,0.02,WUHU216DAVISVP2,2013-07-05 14:45:00,
2013-07-05 10:51:00,72.7,71.8,30.20,West,273,0.0,3.0,97,0.00,,,0.02,WUHU216DAVISVP2,2013-07-05 14:51:00,
2013-07-05 10:56:00,73.1,72.2,30.20,West,273,0.0,2.0,97,0.00,,,0.02,WUHU216DAVISVP2,2013-07-05 14:56:00,
2013-07-05 11:01:00,73.2,72.0,30.20,SW,234,4.0,6.0,96,0.00,,,0.02,WUHU216DAVISVP2,2013-07-05 15:01:00,
2013-07-05 11:06:00,73.2,71.7,30.20,SW,232,1.0,6.0,95,0.00,,,0.02,WUHU216DAVISVP2,2013-07-05 15:06:00,
2013-07-05 11:11:00,73.3,71.8,30.20,SSW,199,1.0,6.0,95,0.00,,,0.02,WUHU216DAVISVP2,2013-07-05 15:11:00,
2013-07-05 11:16:00,73.5,71.7,30.20,SW,216,5.0,6.0,94,0.00,,,0.02,WUHU216DAVISVP2,2013-07-05 15:16:00,
2013-07-05 11:21:00,73.7,71.8,30.20,South,172,2.0,7.0,94,0.00,,,0.02,WUHU216DAVISVP2,2013-07-05 15:21:00,
2013-07-05 11:26:00,74.1,72.2,30.20,WSW,238,4.0,7.0,94,0.00,,,0.02,WUHU216DAVISVP2,2013-07-05 15:26:00,
2013-07-05 11:31:00,74.3,72.1,30.20,SW,233,1.0,7.0,93,0.00,,,0.02,WUHU216DAVISVP2,2013-07-05 15:31:00,
2013-07-05 11:36:00,74.3,71.5,30.20,SW,236,2.0,6.0,91,0.00,,,0.02,WUHU216DAVISVP2,2013-07-05 15:36:00,
2013-07-05 11:41:00,74.4,71.9,30.20,SW,236,3.0,6.0,92,0.00,,,0.02,WUHU216DAVISVP2,2013-07-05 15:41:00,
2013-07-05 11:46:00,74.4,72.2,30.20,SSW,208,1.0,6.0,93,0.00,,,0.02,WUHU216DAVISVP2,2013-07-05 15:46:00,
2013-07-05 11:50:00,74.3,72.1,30.20,SSW,208,0.0,6.0,93,0.00,,,0.02,WUHU216DAVISVP2,2013-07-05 15:50:00,
2013-07-05 11:55:00,74.2,72.0,30.20,West,260,2.0,5.0,93,0.00,,,0.02,WUHU216DAVISVP2,2013-07-05 15:55:00,
2013-07-05 12:00:00,74.1,71.9,30.20,WSW,252,0.0,5.0,93,0.00,,,0.02,WUHU216DAVISVP2,2013-07-05 16:00:00,
2013-07-05 12:05:00,74.1,71.9,30.20,WSW,252,0.0,5.0,93,0.00,,,0.02,WUHU216DAVISVP2,2013-07-05 16:05:00,
2013-07-05 12:10:00,74.2,72.3,30.20,WSW,252,0.0,5.0,94,0.00,,,0.02,WUHU216DAVISVP2,2013-07-05 16:10:00,
2013-07-05 12:15:00,74.3,72.4,30.20,WSW,252,0.0,3.0,94,0.00,,,0.02,WUHU216DAVISVP2,2013-07-05 16:15:00,
2013-07-05 12:20:00,74.3,72.4,30.21,WSW,252,1.0,3.0,94,0.00,,,0.02,WUHU216DAVISVP2,2013-07-05 16:20:00,
2013-07-05 12:25:00,74.2,72.3,30.21,WSW,252,1.0,3.0,94,0.00,,,0.02,WUHU216DAVISVP2,2013-07-05 16:25:00,
2013-07-05 12:30:00,74.1,72.2,30.21,WSW,252,1.0,3.0,94,0.00,,,0.02,WUHU216DAVISVP2,2013-07-05 16:30:00,
2013-07-05 12:35:00,74.3,72.4,30.21,WSW,252,0.0,3.0,94,0.00,,,0.02,WUHU216DAVISVP2,2013-07-05 16:35:00,
2013-07-05 12:40:00,74.5,72.6,30.21,SW,215,2.0,5.0,94,0.00,,,0.02,WUHU216DAVISVP2,2013-07-05 16:40:00,
2013-07-05 12:41:00,74.4,72.8,30.21,SW,215,0.0,5.0,95,0.00,,,0.02,WUHU216DAVISVP2,2013-07-05 16:41:00,
2013-07-05 12:46:00,74.7,73.1,30.21,SW,215,4.0,5.0,95,0.00,,,0.02,WUHU216DAVISVP2,2013-07-05 16:46:00,
2013-07-05 12:51:00,74.8,72.6,30.21,SW,216,2.0,5.0,93,0.00,,,0.02,WUHU216DAVISVP2,2013-07-05 16:51:00,
2013-07-05 12:56:00,75.0,73.1,30.21,SSW,209,1.0,5.0,94,0.00,,,0.02,WUHU216DAVISVP2,2013-07-05 16:56:00,
2013-07-05 13:01:00,75.2,73.0,30.21,South,176,5.0,6.0,93,0.00,,,0.02,WUHU216DAVISVP2,2013-07-05 17:01:00,
2013-07-05 13:06:00,75.4,73.2,30.21,SSW,201,2.0,6.0,93,0.00,,,0.02,WUHU216DAVISVP2,2013-07-05 17:06:00,
2013-07-05 13:11:00,75.4,72.3,30.21,SSW,210,1.0,7.0,90,0.00,,,0.02,WUHU216DAVISVP2,2013-07-05 17:11:00,
2013-07-05 13:16:00,75.3,71.8,30.21,SW,225,4.0,7.0,89,0.00,,,0.02,WUHU216DAVISVP2,2013-07-05 17:16:00,
2013-07-05 13:21:00,75.5,71.7,30.20,WSW,244,5.0,8.0,88,0.00,,,0.02,WUHU216DAVISVP2,2013-07-05 17:21:00,
2013-07-05 13:26:00,76.1,72.3,30.20,SW,232,5.0,9.0,88,0.00,,,0.02,WUHU216DAVISVP2,2013-07-05 17:26:00,
2013-07-05 13:31:00,76.4,71.6,30.20,SW,236,4.0,10.0,85,0.00,,,0.02,WUHU216DAVISVP2,2013-07-05 17:31:00,
2013-07-05 13:36:00,76.6,71.8,30.20,SW,221,2.0,10.0,85,0.00,,,0.02,WUHU216DAVISVP2,2013-07-05 17:36:00,
2013-07-05 13:41:00,76.8,72.6,30.20,WSW,245,7.0,10.0,87,0.00,,,0.02,WUHU216DAVISVP2,2013-07-05 17:41:00,
2013-07-05 13:46:00,76.7,71.6,30.20,South,175,2.0,12.0,84,0.00,,,0.02,WUHU216DAVISVP2,2013-07-05 17:46:00,
2013-07-05 13:51:00,76.8,71.6,30.20,SW,218,6.0,12.0,84,0.00,,,0.02,WUHU216DAVISVP2,2013-07-05 17:51:00,
2013-07-05 13:56:00,77.0,73.2,30.20,SSE,165,4.0,12.0,88,0.00,,,0.02,WUHU216DAVISVP2,2013-07-05 17:56:00,
2013-07-05 14:01:00,77.0,72.8,30.20,SW,227,3.0,12.0,87,0.00,,,0.02,WUHU216DAVISVP2,2013-07-05 18:01:00,
2013-07-05 14:06:00,77.1,72.6,30.20,SSE,150,0.0,10.0,86,0.00,,,0.02,WUHU216DAVISVP2,2013-07-05 18:06:00,
2013-07-05 14:11:00,77.2,72.0,30.20,WSW,238,2.0,10.0,84,0.00,,,0.02,WUHU216DAVISVP2,2013-07-05 18:11:00,
2013-07-05 14:16:00,77.3,72.8,30.20,SSW,206,2.0,10.0,86,0.00,,,0.02,WUHU216DAVISVP2,2013-07-05 18:16:00,
2013-07-05 14:21:00,77.3,71.7,30.20,SSW,198,7.0,11.0,83,0.00,,,0.02,WUHU216DAVISVP2,2013-07-05 18:21:00,
2013-07-05 14:26:00,77.1,71.9,30.20,SW,234,4.0,11.0,84,0.00,,,0.02,WUHU216DAVISVP2,2013-07-05 18:26:00,
2013-07-05 14:31:00,76.9,72.1,30.20,SSW,213,3.0,17.0,85,0.00,,,0.02,WUHU216DAVISVP2,2013-07-05 18:31:00,
2013-07-05 14:36:00,76.7,71.6,30.19,SW,219,4.0,17.0,84,0.00,,,0.02,WUHU216DAVISVP2,2013-07-05 18:36:00,
2013-07-05 14:41:00,76.7,71.8,30.19,SW,221,2.0,17.0,85,0.00,,,0.02,WUHU216DAVISVP2,2013-07-05 18:41:00,
2013-07-05 14:46:00,76.7,71.8,30.20,SSW,202,3.0,17.0,85,0.00,,,0.02,WUHU216DAVISVP2,2013-07-05 18:46:00,
2013-07-05 14:51:00,76.6,71.8,30.19,SSE,163,2.0,13.0,85,0.00,,,0.02,WUHU216DAVISVP2,2013-07-05 18:51:00,
2013-07-05 14:56:00,76.4,71.6,30.20,SSW,210,5.0,20.0,85,0.00,,,0.02,WUHU216DAVISVP2,2013-07-05 18:56:00,
2013-07-05 15:01:00,76.1,71.3,30.20,SSW,211,6.0,20.0,85,0.00,,,0.02,WUHU216DAVISVP2,2013-07-05 19:01:00,
2013-07-05 15:06:00,76.0,71.2,30.19,South,177,3.0,20.0,85,0.00,,,0.02,WUHU216DAVISVP2,2013-07-05 19:06:00,
2013-07-05 15:11:00,75.9,71.4,30.19,SSE,161,1.0,20.0,86,0.00,,,0.02,WUHU216DAVISVP2,2013-07-05 19:11:00,
2013-07-05 15:16:00,76.0,71.9,30.19,WSW,239,3.0,15.0,87,0.00,,,0.02,WUHU216DAVISVP2,2013-07-05 19:16:00,
2013-07-05 15:21:00,76.2,71.7,30.19,WSW,242,10.0,12.0,86,0.00,,,0.02,WUHU216DAVISVP2,2013-07-05 19:21:00,
2013-07-05 15:26:00,76.4,72.3,30.19,SW,226,5.0,12.0,87,0.00,,,0.02,WUHU216DAVISVP2,2013-07-05 19:26:00,
2013-07-05 15:31:00,76.4,71.3,30.18,SW,227,6.0,12.0,84,0.00,,,0.02,WUHU216DAVISVP2,2013-07-05 19:31:00,
2013-07-05 15:36:00,76.6,72.5,30.18,SW,220,2.0,12.0,87,0.00,,,0.02,WUHU216DAVISVP2,2013-07-05 19:36:00,
2013-07-05 15:41:00,76.7,71.9,30.18,South,175,5.0,9.0,85,0.00,,,0.02,WUHU216DAVISVP2,2013-07-05 19:41:00,
2013-07-05 15:46:00,76.9,72.4,30.17,WSW,248,2.0,9.0,86,0.00,,,0.02,WUHU216DAVISVP2,2013-07-05 19:46:00,
2013-07-05 15:51:00,76.7,71.8,30.17,SSW,211,6.0,12.0,85,0.00,,,0.02,WUHU216DAVISVP2,2013-07-05 19:51:00,
2013-07-05 15:56:00,76.6,71.5,30.17,SSW,205,1.0,12.0,84,0.00,,,0.02,WUHU216DAVISVP2,2013-07-05 19:56:00,
2013-07-05 16:01:00,76.6,72.1,30.16,WSW,237,3.0,12.0,86,0.00,,,0.02,WUHU216DAVISVP2,2013-07-05 20:01:00,
2013-07-05 16:06:00,76.5,72.4,30.16,SW,235,1.0,9.0,87,0.00,,,0.02,WUHU216DAVISVP2,2013-07-05 20:06:00,
2013-07-05 16:11:00,76.5,72.4,30.16,SSW,207,1.0,10.0,87,0.00,,,0.02,WUHU216DAVISVP2,2013-07-05 20:11:00,
2013-07-05 16:16:00,76.5,72.0,30.15,WSW,243,5.0,10.0,86,0.00,,,0.02,WUHU216DAVISVP2,2013-07-05 20:16:00,
2013-07-05 16:21:00,76.5,71.7,30.16,SW,228,3.0,10.0,85,0.00,,,0.02,WUHU216DAVISVP2,2013-07-05 20:21:00,
2013-07-05 16:26:00,76.4,71.9,30.16,SW,230,3.0,10.0,86,0.00,,,0.02,WUHU216DAVISVP2,2013-07-05 20:26:00,
2013-07-05 16:31:00,76.2,72.1,30.15,SW,229,1.0,8.0,87,0.00,,,0.02,WUHU216DAVISVP2,2013-07-05 20:31:00,
2013-07-05 16:36:00,76.2,72.1,30.15,WSW,244,3.0,8.0,87,0.00,,,0.02,WUHU216DAVISVP2,2013-07-05 20:36:00,
2013-07-05 16:41:00,76.0,71.5,30.15,West,267,0.0,8.0,86,0.00,,,0.02,WUHU216DAVISVP2,2013-07-05 20:41:00,
2013-07-05 16:46:00,76.0,72.2,30.15,West,267,0.0,8.0,88,0.00,,,0.02,WUHU216DAVISVP2,2013-07-05 20:46:00,
2013-07-05 16:51:00,76.0,72.5,30.15,West,267,0.0,4.0,89,0.00,,,0.02,WUHU216DAVISVP2,2013-07-05 20:51:00,
2013-07-05 16:56:00,75.9,72.4,30.15,WSW,241,4.0,5.0,89,0.00,,,0.02,WUHU216DAVISVP2,2013-07-05 20:56:00,
2013-07-05 17:01:00,75.8,72.0,30.15,WSW,240,1.0,5.0,88,0.00,,,0.02,WUHU216DAVISVP2,2013-07-05 21:01:00,
2013-07-05 17:06:00,75.8,72.3,30.15,WSW,240,2.0,5.0,89,0.00,,,0.02,WUHU216DAVISVP2,2013-07-05 21:06:00,
2013-07-05 17:11:00,75.7,72.5,30.16,SSW,202,1.0,5.0,90,0.00,,,0.02,WUHU216DAVISVP2,2013-07-05 21:11:00,
2013-07-05 17:16:00,75.6,72.5,30.16,SSW,202,0.0,4.0,90,0.00,,,0.02,WUHU216DAVISVP2,2013-07-05 21:16:00,
2013-07-05 17:21:00,75.6,72.4,30.16,SSW,202,0.0,4.0,90,0.00,,,0.02,WUHU216DAVISVP2,2013-07-05 21:21:00,
2013-07-05 17:26:00,75.5,72.4,30.16,SSW,202,0.0,4.0,90,0.00,,,0.02,WUHU216DAVISVP2,2013-07-05 21:26:00,
2013-07-05 17:31:00,75.5,72.4,30.16,SSW,213,1.0,4.0,90,0.00,,,0.02,WUHU216DAVISVP2,2013-07-05 21:31:00,
2013-07-05 17:36:00,75.5,72.4,30.16,SW,224,4.0,5.0,90,0.00,,,0.02,WUHU216DAVISVP2,2013-07-05 21:36:00,
2013-07-05 17:41:00,75.5,72.4,30.16,SW,228,4.0,8.0,90,0.00,,,0.02,WUHU216DAVISVP2,2013-07-05 21:41:00,
2013-07-05 17:46:00,75.4,72.3,30.16,SSW,213,1.0,8.0,90,0.00,,,0.02,WUHU216DAVISVP2,2013-07-05 21:46:00,
2013-07-05 17:51:00,75.3,72.2,30.15,SSE,157,2.0,8.0,90,0.00,,,0.02,WUHU216DAVISVP2,2013-07-05 21:51:00,
2013-07-05 17:56:00,75.3,72.2,30.15,SSE,157,1.0,8.0,90,0.00,,,0.02,WUHU216DAVISVP2,2013-07-05 21:56:00,
2013-07-05 18:01:00,75.3,72.2,30.15,SSE,157,0.0,4.0,90,0.00,,,0.02,WUHU216DAVISVP2,2013-07-05 22:01:00,
2013-07-05 18:06:00,75.2,72.4,30.15,SSE,157,0.0,3.0,91,0.00,,,0.02,WUHU216DAVISVP2,2013-07-05 22:06:00,
2013-07-05 18:11:00,75.1,72.6,30.15,SSE,157,0.0,2.0,92,0.00,,,0.02,WUHU216DAVISVP2,2013-07-05 22:11:00,
2013-07-05 18:16:00,75.0,72.5,30.15,SSE,157,0.0,1.0,92,0.00,,,0.02,WUHU216DAVISVP2,2013-07-05 22:16:00,
2013-07-05 18:17:00,75.0,72.5,30.15,SSE,157,0.0,1.0,92,0.00,,,0.02,WUHU216DAVISVP2,2013-07-05 22:17:00,
2013-07-05 18:22:00,74.9,72.4,30.15,SSE,157,2.0,2.0,92,0.00,,,0.02,WUHU216DAVISVP2,2013-07-05 22:22:00,
2013-07-05 18:27:00,74.8,72.3,30.15,SSE,157,0.0,2.0,92,0.00,,,0.02,WUHU216DAVISVP2,2013-07-05 22:27:00,
2013-07-05 18:32:00,74.7,72.2,30.16,SSE,157,0.0,2.0,92,0.00,,,0.02,WUHU216DAVISVP2,2013-07-05 22:32:00,
2013-07-05 18:37:00,74.7,72.2,30.15,SSE,157,0.0,2.0,92,0.00,,,0.02,WUHU216DAVISVP2,2013-07-05 22:37:00,
2013-07-05 18:42:00,74.6,72.1,30.15,SSE,157,0.0,2.0,92,0.00,,,0.02,WUHU216DAVISVP2,2013-07-05 22:42:00,
2013-07-05 18:47:00,74.6,72.1,30.15,SSE,157,0.0,0.0,92,0.00,,,0.02,WUHU216DAVISVP2,2013-07-05 22:47:00,
2013-07-05 18:52:00,74.6,72.1,30.15,SSE,157,0.0,0.0,92,0.00,,,0.02,WUHU216DAVISVP2,2013-07-05 22:52:00,
2013-07-05 18:58:00,74.6,72.4,30.15,SSE,157,0.0,0.0,93,0.00,,,0.02,WUHU216DAVISVP2,2013-07-05 22:58:00,
2013-07-05 19:03:00,74.6,72.4,30.16,SSE,157,0.0,0.0,93,0.00,,,0.02,WUHU216DAVISVP2,2013-07-05 23:03:00,
2013-07-05 19:08:00,74.6,72.4,30.16,SSE,157,0.0,0.0,93,0.00,,,0.02,WUHU216DAVISVP2,2013-07-05 23:08:00,
2013-07-05 19:13:00,74.6,72.4,30.16,SSE,157,0.0,0.0,93,0.00,,,0.02,WUHU216DAVISVP2,2013-07-05 23:13:00,
2013-07-05 19:18:00,74.6,72.4,30.16,SSE,157,0.0,0.0,93,0.00,,,0.02,WUHU216DAVISVP2,2013-07-05 23:18:00,
2013-07-05 19:23:00,74.6,72.4,30.16,SSE,157,0.0,0.0,93,0.00,,,0.02,WUHU216DAVISVP2,2013-07-05 23:23:00,
2013-07-05 19:28:00,74.6,72.4,30.17,SSE,157,0.0,0.0,93,0.00,,,0.02,WUHU216DAVISVP2,2013-07-05 23:28:00,
2013-07-05 19:33:00,74.5,72.6,30.17,SSE,157,0.0,0.0,94,0.00,,,0.02,WUHU216DAVISVP2,2013-07-05 23:33:00,
2013-07-05 19:38:00,74.4,72.5,30.17,SSE,157,0.0,0.0,94,0.00,,,0.02,WUHU216DAVISVP2,2013-07-05 23:38:00,
2013-07-05 19:43:00,74.4,72.5,30.17,SSE,157,0.0,0.0,94,0.00,,,0.02,WUHU216DAVISVP2,2013-07-05 23:43:00,
2013-07-05 19:48:00,74.4,72.5,30.18,SSE,157,0.0,0.0,94,0.00,,,0.02,WUHU216DAVISVP2,2013-07-05 23:48:00,
2013-07-05 19:53:00,74.2,72.3,30.18,SSE,157,0.0,0.0,94,0.00,,,0.02,WUHU216DAVISVP2,2013-07-05 23:53:00,
2013-07-05 19:58:00,74.1,72.2,30.18,SSE,157,0.0,0.0,94,0.00,,,0.02,WUHU216DAVISVP2,2013-07-05 23:58:00,
2013-07-05 20:03:00,74.0,72.1,30.18,SSE,157,0.0,0.0,94,0.00,,,0.02,WUHU216DAVISVP2,2013-07-06 00:03:00,
2013-07-05 20:08:00,73.9,72.0,30.18,SSE,157,0.0,1.0,94,0.00,,,0.02,WUHU216DAVISVP2,2013-07-06 00:08:00,
2013-07-05 20:13:00,73.8,72.2,30.18,SSE,157,0.0,1.0,95,0.00,,,0.02,WUHU216DAVISVP2,2013-07-06 00:13:00,
2013-07-05 20:18:00,73.7,72.1,30.18,SSE,157,0.0,1.0,95,0.00,,,0.02,WUHU216DAVISVP2,2013-07-06 00:18:00,
2013-07-05 20:23:00,73.7,72.1,30.18,SSE,157,0.0,1.0,95,0.00,,,0.02,WUHU216DAVISVP2,2013-07-06 00:23:00,
2013-07-05 20:28:00,73.5,71.9,30.18,SSE,157,0.0,1.0,95,0.01,,,0.03,WUHU216DAVISVP2,2013-07-06 00:28:00,
2013-07-05 20:33:00,73.5,71.9,30.18,SSE,157,0.0,0.0,95,0.01,,,0.03,WUHU216DAVISVP2,2013-07-06 00:33:00,
2013-07-05 20:38:00,73.4,71.9,30.17,SSE,157,0.0,0.0,95,0.02,,,0.04,WUHU216DAVISVP2,2013-07-06 00:38:00,
2013-07-05 20:43:00,73.3,71.8,30.18,SSE,157,0.0,0.0,95,0.02,,,0.04,WUHU216DAVISVP2,2013-07-06 00:43:00,
2013-07-05 20:48:00,73.3,71.8,30.17,SSE,157,0.0,0.0,95,0.03,,,0.05,WUHU216DAVISVP2,2013-07-06 00:48:00,
2013-07-05 20:53:00,73.2,72.0,30.16,SSE,157,0.0,0.0,96,0.03,,,0.05,WUHU216DAVISVP2,2013-07-06 00:53:00,
2013-07-05 20:58:00,73.1,71.9,30.17,SSE,157,0.0,0.0,96,0.03,,,0.05,WUHU216DAVISVP2,2013-07-06 00:58:00,
2013-07-05 21:03:00,73.0,71.8,30.17,SSE,157,0.0,0.0,96,0.03,,,0.05,WUHU216DAVISVP2,2013-07-06 01:03:00,
2013-07-05 21:08:00,72.9,71.7,30.17,SSE,157,0.0,1.0,96,0.03,,,0.05,WUHU216DAVISVP2,2013-07-06 01:08:00,
2013-07-05 21:13:00,72.8,71.6,30.17,SSE,157,0.0,1.0,96,0.03,,,0.05,WUHU216DAVISVP2,2013-07-06 01:13:00,
2013-07-05 21:18:00,72.7,71.5,30.17,SSE,157,0.0,1.0,96,0.03,,,0.05,WUHU216DAVISVP2,2013-07-06 01:18:00,
2013-07-05 21:23:00,72.7,71.5,30.17,SSE,157,0.0,1.0,96,0.03,,,0.05,WUHU216DAVISVP2,2013-07-06 01:23:00,
2013-07-05 21:24:00,72.6,71.4,30.17,SSE,157,0.0,0.0,96,0.03,,,0.05,WUHU216DAVISVP2,2013-07-06 01:24:00,
2013-07-05 21:29:00,72.6,71.4,30.17,SSE,157,0.0,0.0,96,0.02,,,0.05,WUHU216DAVISVP2,2013-07-06 01:29:00,
2013-07-05 21:34:00,72.5,71.3,30.17,SSE,157,0.0,0.0,96,0.02,,,0.05,WUHU216DAVISVP2,2013-07-06 01:34:00,
2013-07-05 21:39:00,72.5,71.3,30.17,SSE,157,0.0,0.0,96,0.01,,,0.05,WUHU216DAVISVP2,2013-07-06 01:39:00,
2013-07-05 21:44:00,72.4,71.2,30.17,SSE,157,0.0,0.0,96,0.01,,,0.05,WUHU216DAVISVP2,2013-07-06 01:44:00,
2013-07-05 21:49:00,72.3,71.1,30.17,SSE,157,0.0,0.0,96,0.00,,,0.05,WUHU216DAVISVP2,2013-07-06 01:49:00,
2013-07-05 21:54:00,72.2,71.0,30.17,SSE,157,0.0,0.0,96,0.00,,,0.05,WUHU216DAVISVP2,2013-07-06 01:54:00,
2013-07-05 21:59:00,72.2,71.0,30.17,SSE,157,0.0,0.0,96,0.00,,,0.05,WUHU216DAVISVP2,2013-07-06 01:59:00,
2013-07-05 22:04:00,72.1,70.9,30.17,SSE,157,0.0,0.0,96,0.00,,,0.05,WUHU216DAVISVP2,2013-07-06 02:04:00,
2013-07-05 22:09:00,72.0,70.8,30.17,SSE,157,0.0,0.0,96,0.00,,,0.05,WUHU216DAVISVP2,2013-07-06 02:09:00,
2013-07-05 22:14:00,72.0,70.8,30.17,SSE,157,0.0,0.0,96,0.00,,,0.05,WUHU216DAVISVP2,2013-07-06 02:14:00,
2013-07-05 22:15:00,72.0,70.8,30.18,SSE,157,0.0,0.0,96,0.00,,,0.05,WUHU216DAVISVP2,2013-07-06 02:15:00,
2013-07-05 22:20:00,71.9,70.7,30.18,SSE,157,0.0,0.0,96,0.00,,,0.05,WUHU216DAVISVP2,2013-07-06 02:20:00,
2013-07-05 22:25:00,71.9,71.0,30.17,SSE,157,0.0,0.0,97,0.00,,,0.05,WUHU216DAVISVP2,2013-07-06 02:25:00,
2013-07-05 22:30:00,71.9,71.0,30.17,SSE,157,0.0,0.0,97,0.00,,,0.05,WUHU216DAVISVP2,2013-07-06 02:30:00,
2013-07-05 22:35:00,71.9,71.0,30.17,SSE,157,0.0,0.0,97,0.00,,,0.05,WUHU216DAVISVP2,2013-07-06 02:35:00,
2013-07-05 22:40:00,71.8,70.9,30.17,SSE,157,0.0,0.0,97,0.00,,,0.05,WUHU216DAVISVP2,2013-07-06 02:40:00,
2013-07-05 22:45:00,71.8,70.9,30.17,SSE,157,0.0,0.0,97,0.00,,,0.05,WUHU216DAVISVP2,2013-07-06 02:45:00,
2013-07-05 22:50:00,71.7,70.8,30.17,SSE,157,0.0,0.0,97,0.00,,,0.05,WUHU216DAVISVP2,2013-07-06 02:50:00,
2013-07-05 22:51:00,71.7,70.8,30.17,SSE,157,0.0,0.0,97,0.00,,,0.05,WUHU216DAVISVP2,2013-07-06 02:51:00,
2013-07-05 22:56:00,71.7,70.8,30.17,SSE,157,0.0,0.0,97,0.00,,,0.05,WUHU216DAVISVP2,2013-07-06 02:56:00,
2013-07-05 23:01:00,71.6,70.4,30.17,SSE,157,0.0,0.0,96,0.00,,,0.05,WUHU216DAVISVP2,2013-07-06 03:01:00,
2013-07-05 23:06:00,71.5,70.3,30.17,SSE,157,0.0,0.0,96,0.00,,,0.05,WUHU216DAVISVP2,2013-07-06 03:06:00,
2013-07-05 23:11:00,71.4,70.5,30.17,SSE,157,0.0,0.0,97,0.00,,,0.05,WUHU216DAVISVP2,2013-07-06 03:11:00,
2013-07-05 23:16:00,71.4,70.5,30.17,SSE,157,0.0,0.0,97,0.00,,,0.05,WUHU216DAVISVP2,2013-07-06 03:16:00,
2013-07-05 23:21:00,71.4,70.5,30.17,SSE,157,0.0,0.0,97,0.00,,,0.05,WUHU216DAVISVP2,2013-07-06 03:21:00,
2013-07-05 23:26:00,71.3,70.4,30.17,SSE,157,0.0,0.0,97,0.00,,,0.05,WUHU216DAVISVP2,2013-07-06 03:26:00,
2013-07-05 23:31:00,71.3,70.4,30.17,SSE,157,0.0,0.0,97,0.00,,,0.05,WUHU216DAVISVP2,2013-07-06 03:31:00,
2013-07-05 23:36:00,71.2,70.3,30.17,SSE,157,0.0,0.0,97,0.00,,,0.05,WUHU216DAVISVP2,2013-07-06 03:36:00,
2013-07-05 23:37:00,71.2,70.3,30.17,SSE,157,0.0,0.0,97,0.00,,,0.05,WUHU216DAVISVP2,2013-07-06 03:37:00,
2013-07-05 23:42:00,71.2,70.3,30.17,SSE,157,0.0,0.0,97,0.00,,,0.05,WUHU216DAVISVP2,2013-07-06 03:42:00,
2013-07-05 23:47:00,71.1,70.2,30.17,SSE,157,0.0,0.0,97,0.00,,,0.05,WUHU216DAVISVP2,2013-07-06 03:47:00,
2013-07-05 23:52:00,71.0,70.1,30.17,SSE,157,0.0,0.0,97,0.00,,,0.05,WUHU216DAVISVP2,2013-07-06 03:52:00,
2013-07-05 23:57:00,71.0,70.1,30.17,SSE,157,0.0,0.0,97,0.00,,,0.05,WUHU216DAVISVP2,2013-07-06 03:57:00,